TimeMST,TemperatureF,Dew PointF,Humidity,Sea Level PressureIn,VisibilityMPH,Wind Direction,Wind SpeedMPH,Gust SpeedMPH,PrecipitationIn,Events,Conditions,WindDirDegrees,DateUTC
12:53 AM,36.0,28.9,76,29.87,10.0,North,-9999.0,-,N/A,,Clear,0,2013-03-03 07:53:00
1:53 AM,33.1,28.0,82,29.86,10.0,North,-9999.0,-,N/A,,Clear,0,2013-03-03 08:53:00
2:53 AM,34.0,27.0,75,29.81,10.0,North,-9999.0,-,N/A,,Clear,0,2013-03-03 09:53:00
3:53 AM,33.8,26.6,75,29.76,10.0,North,-9999.0,-,N/A,,Clear,0,2013-03-03 10:53:00
4:53 AM,32.0,26.6,80,29.74,10.0,North,-9999.0,-,N/A,,Clear,0,2013-03-03 11:53:00
5:00 AM,33.8,26.6,75,29.74,15.0,Calm,Calm,-,N/A,,Overcast,0,2013-03-03 12:00:00
5:53 AM,33.1,25.0,72,29.79,10.0,North,-9999.0,-,N/A,,Scattered Clouds,0,2013-03-03 12:53:00
6:00 AM,37.4,24.8,60,29.74,15.0,South,2.3,-,N/A,,Mostly Cloudy,180,2013-03-03 13:00:00
6:53 AM,34.0,26.1,73,29.79,10.0,North,-9999.0,-,N/A,,Overcast,0,2013-03-03 13:53:00
6:55 AM,35.6,26.6,70,29.72,15.0,South,2.3,-,N/A,,Overcast,190,2013-03-03 13:55:00
7:53 AM,34.0,28.0,79,29.77,10.0,North,-9999.0,-,N/A,,Mostly Cloudy,0,2013-03-03 14:53:00
7:55 AM,35.6,26.6,70,29.72,15.0,WNW,1.2,-,N/A,,Overcast,290,2013-03-03 14:55:00
8:53 AM,36.0,30.0,79,29.75,10.0,North,-9999.0,-,N/A,,Overcast,0,2013-03-03 15:53:00
8:59 AM,37.4,26.6,65,29.70,25.0,Calm,Calm,-,N/A,,Overcast,0,2013-03-03 15:59:00
9:53 AM,39.0,28.9,67,29.73,10.0,North,-9999.0,-,N/A,,Overcast,0,2013-03-03 16:53:00
10:00 AM,39.2,28.4,65,29.67,25.0,SSW,2.3,-,N/A,,Mostly Cloudy,200,2013-03-03 17:00:00
10:53 AM,39.9,30.9,70,29.68,10.0,North,-9999.0,-,N/A,,Scattered Clouds,0,2013-03-03 17:53:00
10:57 AM,42.8,30.2,61,29.67,25.0,Calm,Calm,-,N/A,,Mostly Cloudy,0,2013-03-03 17:57:00
11:53 AM,46.9,30.0,52,29.63,10.0,North,-9999.0,-,N/A,,Scattered Clouds,0,2013-03-03 18:53:00
12:02 PM,50.0,28.4,43,29.58,25.0,SSE,4.6,-,N/A,,Mostly Cloudy,160,2013-03-03 19:02:00
12:53 PM,48.9,30.0,48,29.57,10.0,North,-9999.0,-,N/A,,Scattered Clouds,0,2013-03-03 19:53:00
12:55 PM,51.8,28.4,41,29.54,25.0,SE,6.9,-,N/A,,Mostly Cloudy,130,2013-03-03 19:55:00
1:53 PM,48.9,30.0,48,29.57,10.0,North,-9999.0,-,N/A,,Scattered Clouds,0,2013-03-03 20:53:00
1:57 PM,51.8,28.4,41,29.53,25.0,East,4.6,-,N/A,,Mostly Cloudy,100,2013-03-03 20:57:00
2:53 PM,44.1,30.9,60,29.58,10.0,North,-9999.0,-,N/A,,Mostly Cloudy,0,2013-03-03 21:53:00
3:00 PM,51.8,28.4,41,29.50,25.0,SSW,3.5,-,N/A,,Mostly Cloudy,200,2013-03-03 22:00:00
3:53 PM,46.0,32.0,58,29.55,10.0,North,-9999.0,-,N/A,,Scattered Clouds,0,2013-03-03 22:53:00
3:55 PM,46.4,30.2,53,29.50,25.0,SW,5.8,-,N/A,,Scattered Clouds,230,2013-03-03 22:55:00
4:53 PM,35.1,28.9,78,29.67,10.0,North,-9999.0,-,N/A,,Scattered Clouds,0,2013-03-03 23:53:00
4:55 PM,33.8,28.4,81,29.96,3.0,NW,38.0,-,N/A,Snow,Light Snow,310,2013-03-03 23:55:00
5:03 PM,33.8,28.4,81,29.60,2.5,North,-9999.0,-,0.00,Snow,Light Snow,0,2013-03-04 00:03:00
5:10 PM,32.0,28.4,87,29.62,0.8,North,-9999.0,-,0.00,Snow,Light Snow,0,2013-03-04 00:10:00
5:17 PM,30.2,28.4,93,29.63,0.2,North,-9999.0,-,0.00,Fog-Snow,Snow,0,2013-03-04 00:17:00
5:53 PM,28.9,28.0,96,29.80,0.2,North,-9999.0,-,0.00,Fog-Snow,Heavy Snow,0,2013-03-04 00:53:00
5:56 PM,28.4,26.6,93,29.71,0.2,NNW,17.3,-,N/A,Snow,Snow,340,2013-03-04 00:56:00
6:01 PM,28.4,28.4,100,29.73,0.5,North,-9999.0,-,0.00,Fog-Snow,Snow,0,2013-03-04 01:01:00
6:06 PM,28.4,26.6,93,29.73,1.0,North,-9999.0,-,0.00,Snow,Light Snow,0,2013-03-04 01:06:00
6:14 PM,28.4,26.6,93,29.75,3.0,North,-9999.0,-,0.00,Snow,Light Snow,0,2013-03-04 01:14:00
6:25 PM,28.4,26.6,93,29.76,9.0,North,-9999.0,-,0.00,Snow,Light Snow,0,2013-03-04 01:25:00
6:53 PM,28.9,25.0,85,29.85,7.0,North,-9999.0,-,0.00,Snow,Light Snow,0,2013-03-04 01:53:00
6:56 PM,28.4,24.8,86,29.76,5.0,NNW,13.8,-,N/A,Snow,Light Snow,340,2013-03-04 01:56:00
7:00 PM,28.4,26.6,93,29.75,3.0,North,-9999.0,-,0.00,Snow,Light Snow,0,2013-03-04 02:00:00
7:10 PM,28.4,26.6,93,29.76,2.5,North,-9999.0,-,0.00,Snow,Light Snow,0,2013-03-04 02:10:00
7:22 PM,28.4,24.8,86,29.76,6.0,North,-9999.0,-,0.00,Snow,Light Snow,0,2013-03-04 02:22:00
7:53 PM,30.9,23.0,72,29.86,10.0,North,-9999.0,-,0.00,,Overcast,0,2013-03-04 02:53:00
7:54 PM,32.0,21.2,64,29.78,15.0,NW,13.8,-,N/A,,Overcast,310,2013-03-04 02:54:00
8:31 PM,28.4,24.8,86,29.79,2.0,North,-9999.0,-,0.00,Snow,Light Snow,0,2013-03-04 03:31:00
8:41 PM,28.4,24.8,86,29.80,6.0,North,-9999.0,-,0.00,Snow,Light Snow,0,2013-03-04 03:41:00
8:53 PM,28.9,23.0,78,29.88,9.0,North,-9999.0,-,0.00,,Overcast,0,2013-03-04 03:53:00
8:58 PM,30.2,23.0,75,29.78,15.0,WNW,15.0,-,N/A,,Overcast,300,2013-03-04 03:58:00
9:53 PM,30.9,19.9,64,29.87,10.0,North,-9999.0,-,N/A,,Overcast,0,2013-03-04 04:53:00
9:59 PM,32.0,17.6,55,29.78,15.0,NW,15.0,-,N/A,,Overcast,310,2013-03-04 04:59:00
10:53 PM,30.9,19.0,61,29.86,10.0,North,-9999.0,-,N/A,,Overcast,0,2013-03-04 05:53:00
11:53 PM,30.0,17.1,59,29.85,10.0,North,-9999.0,-,N/A,,Scattered Clouds,0,2013-03-04 06:53:00